Вернуться в каталог

CHAOHU-1

АктивенНаукаSSO
NORAD 51843·PAYLOAD·🇨🇳 China
Это название спутника еще не подтверждено официальными источниками.

Запущен Feb 27, 2022 с Wenchang Space Launch Site

Loading…

Ближайшие Пролёты (ближайшие 24 часа)

TLE

СвежийSource: Space-Track

Эпоха: Sep 14, 2026, 13:54 UTC

1 51843U 22019V   26257.57928749  .00055226  00000-0  60492-3 0  9992
2 51843  97.3481 347.8787 0004930 183.9090 176.2131 15.63094604253318

Отслеживайте CHAOHU-1 в реальном времени с AllMySat

Download on the App Store